[[{"header":{"parameterUnit":"m.s-1","parameterCategory":1,"la1":30.2991,"la2":30.254,"lo1":-89.0895,"lo2":-89.0444,"dx":0.0017,"dy":0.0017,"nx":28,"ny":28,"refTime":"2022-11-13T15:00:00:Z","depth":0,"parameterNumber":2,"parameterNumberName":"U-component_of_WINDS"},"data":[0,0,0,0,0,0,0,0,0,0,0,0,0,0,0,0,0,0,0,0,0,0,0,0,0,0,0,0,0,0,0,0,0,0,0,0,0,0,0,0,0,0,0,0,0,0,0,0,0,0,0,0,0,0,0,0,0,0,-5.1576,-5.1576,0,-5.1576,-5.1576,-5.1576,-5.1485,-5.1482,-5.148,-5.1478,-5.1477,-5.1479,-5.1481,0,0,0,0,0,0,0,0,0,0,0,0,0,-5.1496,-5.1497,-5.1576,-5.1576,-5.1576,-5.1576,-5.1576,-5.1576,-5.1485,-5.1482,-5.1479,-5.1477,-5.1476,-5.1478,-5.1481,0,0,0,0,0,0,0,0,0,0,0,0,0,-5.1517,-5.1498,-5.1576,-5.1531,-5.1527,-5.1576,-5.1576,-5.1576,-5.1486,-5.1482,-5.1479,-5.1475,-5.1475,-5.1478,-5.1481,-5.1574,0,0,-5.1492,-5.1493,0,0,0,0,0,0,0,0,-5.1516,-5.152,-5.1537,-5.1534,-5.1529,-5.1527,-5.1547,-5.1576,-5.1487,-5.1501,-5.1478,-5.1473,-5.1496,-5.1497,-5.1505,-5.1574,-5.1574,-5.1492,-5.1494,-5.1495,-5.1496,0,0,0,0,0,0,0,-5.1514,-5.1519,-5.1576,-5.1538,-5.1533,-5.151,-5.1509,-5.1552,-5.1519,-5.15,-5.1493,-5.1494,-5.1493,-5.1502,-5.1505,-5.1574,-5.1492,-5.1495,-5.1497,-5.1498,-5.1718,-5.1722,0,0,0,0,0,0,-5.1519,-5.1519,-5.1576,-5.1576,-5.1514,-5.1514,-5.1513,-5.1531,-5.1518,-5.1513,-5.1498,-5.149,-5.1499,-5.1501,-5.1504,-5.161,-5.1495,-5.1498,-5.15,-5.1714,-5.1719,-5.1723,0,0,0,0,0,0,-5.1518,-5.1525,-5.1576,-5.1546,-5.155,-5.152,-5.1541,-5.1533,-5.1542,-5.1517,-5.151,-5.1513,-5.1496,-5.15,-5.1557,-5.1609,-5.15,-5.1503,-5.171,-5.1716,-5.1721,-5.1824,0,0,0,0,0,0,-5.1516,-5.1525,-5.156,-5.1547,-5.1552,-5.163,-5.1544,-5.1536,-5.1548,-5.1539,-5.1529,-5.1524,-5.1493,-5.1553,-5.1561,-5.1611,-5.1506,-5.1705,-5.1712,-5.1719,-5.1816,-5.1833,-5.1847,0,0,0,0,0,-5.1513,-5.1589,-5.1563,-5.157,-5.1596,-5.1633,-5.1636,-5.1599,-5.1553,-5.1587,-5.1571,-5.1525,-5.1603,-5.156,-5.1568,-5.162,-5.1701,-5.171,-5.1719,-5.1809,-5.1829,-5.1847,0,0,0,0,0,0,-5.1608,-5.1587,-5.1557,-5.1631,-5.1635,-5.1617,-5.1659,-5.1622,-5.1638,-5.1628,-5.1582,-5.158,-5.1645,-5.1639,-5.1591,-5.1709,-5.1644,-5.1655,-5.171,-5.1729,-5.1744,-5.1743,-5.1508,0,0,0,0,0,-5.1638,-5.1671,-5.165,-5.1717,-5.1721,-5.1691,-5.1705,-5.1677,-5.1678,-5.1679,-5.1667,-5.167,-5.1695,-5.1712,-5.1734,-5.1816,-5.1811,-5.1856,-5.1872,-5.1885,-5.1893,-5.1935,-5.1954,-5.1751,-5.1751,-5.1751,0,0,-5.1699,-5.1692,-5.1715,-5.1736,-5.1735,-5.1769,-5.1692,-5.1731,-5.1756,-5.1685,-5.1738,-5.173,-5.173,-5.18,-5.183,-5.1797,-5.1949,-5.1896,-5.1906,-5.1908,-5.1945,-5.1965,-5.1982,-5.1757,-5.1756,-5.1755,0,0,-5.1827,-5.1826,-5.1881,-5.1882,-5.1883,-5.1863,-5.1876,-5.1865,-5.1857,-5.191,-5.1857,-5.1886,-5.1931,-5.1933,-5.194,-5.2071,-5.2028,-5.208,-5.216,-5.2201,-5.2216,-5.223,-5.2274,-5.2291,-5.2089,-5.209,-5.209,0,-5.1903,-5.1952,-5.1914,-5.1956,-5.1967,-5.1906,-5.1961,-5.1964,-5.1972,-5.198,-5.1944,-5.1998,-5.1994,-5.2063,-5.2095,-5.2104,-5.2116,-5.2078,-5.2217,-5.2231,-5.2243,-5.2285,-5.2302,-5.2096,-5.2095,-5.2094,-5.2094,0,-5.2044,-5.2079,-5.2123,-5.2132,-5.2149,-5.2197,-5.2166,-5.2187,-5.2158,-5.2142,-5.2196,-5.219,-5.2209,-5.2224,-5.2196,-5.2289,-5.2268,-5.2226,-5.2158,-5.2269,-5.2307,-5.2323,-5.2104,-5.2102,-5.21,-5.2099,0,0,-5.2227,-5.2217,-5.2233,-5.2236,-5.2234,-5.226,-5.2307,-5.2326,-5.2343,-5.2352,-5.2388,-5.2429,-5.2389,-5.2397,-5.2369,-5.2406,-5.2507,-5.2358,-5.2358,-5.2384,-5.2607,-5.2636,-5.2655,-5.2481,-5.2484,-5.2486,-5.2606,0,-5.2349,-5.2427,-5.2395,-5.2475,-5.2506,-5.2451,-5.2491,-5.2493,-5.248,-5.2504,-5.249,-5.2518,-5.2465,-5.2469,-5.2503,-5.2488,-5.2551,-5.2479,-5.2512,-5.2514,-5.251,-5.2676,-5.2707,-5.2819,-5.2621,-5.2623,-5.2625,0,-5.25,-5.2515,-5.2599,-5.259,-5.2602,-5.2639,-5.2654,-5.2679,-5.2681,-5.2668,-5.2679,-5.2643,-5.2687,-5.2624,-5.2683,-5.2635,-5.2648,-5.2643,-5.2646,-5.2644,-5.2573,-5.2675,-5.2855,-5.2871,-5.2649,-5.2647,-5.2645,0,-5.2622,-5.2664,-5.2718,-5.2724,-5.2716,-5.2743,-5.2741,-5.2739,-5.2753,-5.2767,-5.2775,-5.2794,-5.2803,-5.2819,-5.2789,-5.2746,-5.2852,-5.2787,-5.2841,-5.2842,-5.2862,-5.2861,-5.3043,-5.2877,-5.2877,-5.2877,-5.2876,0,-5.2759,-5.2811,-5.2773,-5.2806,-5.2864,-5.2828,-5.2885,-5.2877,-5.2877,-5.2907,-5.2862,-5.2891,-5.2852,-5.2878,-5.2855,-5.2907,-5.2912,-5.2902,-5.2895,-5.2904,-5.2905,-5.2908,-5.2898,-5.2881,-5.288,-5.2879,-5.2878,0,-5.2903,-5.288,-5.2935,-5.2924,-5.2923,-5.2966,-5.2956,-5.2986,-5.2971,-5.301,-5.3017,-5.2993,-5.3021,-5.2994,-5.3021,-5.3006,-5.3074,-5.3057,-5.3073,-5.3066,-5.3121,-5.3115,-5.3309,-5.3331,-5.3155,-5.3156,-5.3158,0,-5.2989,-5.3028,-5.3022,-5.304,-5.3041,-5.307,-5.3083,-5.305,-5.3066,-5.3073,-5.3102,-5.3126,-5.3143,-5.3191,-5.3175,-5.3195,-5.3176,-5.3243,-5.3179,-5.3187,-5.3173,-5.317,-5.3173,-5.3255,-5.3257,-5.3259,-5.326,0,-5.3145,-5.3132,-5.3154,-5.3172,-5.319,-5.3203,-5.3212,-5.3229,-5.3195,-5.3216,-5.3244,-5.3258,-5.3286,-5.331,-5.3325,-5.3323,-5.3285,-5.3281,-5.3294,-5.3302,-5.3308,-5.3302,-5.3104,-5.3276,-5.3274,-5.3273,-5.3272,-5.3272,-5.326,-5.3292,-5.3292,-5.3318,-5.3322,-5.3332,-5.336,-5.3349,-5.3372,-5.3392,-5.3372,-5.3406,-5.3407,-5.3424,-5.3427,-5.3452,-5.3424,-5.3444,-5.3448,-5.3453,-5.3459,-5.3308,-5.3456,-5.3455,-5.3455,-5.3454,-5.3454,0,-5.341,-5.3408,-5.3433,-5.3447,-5.3468,-5.3434,-5.3443,-5.3462,-5.3492,-5.3498,-5.3516,-5.3549,-5.3572,-5.356,-5.358,-5.3603,-5.3587,-5.3609,-5.3605,-5.3605,-5.3485,-5.347,-5.3622,-5.3622,-5.3622,-5.3622,-5.3622,-5.3622,-5.349,-5.3541,-5.3529,-5.3582,-5.358,-5.3613,-5.3621,-5.363,-5.3633,-5.3672,-5.3691,-5.3684,-5.3681,-5.3702,-5.3722,-5.3717,-5.3725,-5.3754,-5.3743,-5.363,-5.3613,-5.3597,-5.3583,-5.3757,-5.3757,-5.386,-5.3861,-5.3862]},{"header":{"parameterUnit":"m.s-1","parameterCategory":1,"la1":30.2991,"la2":30.254,"lo1":-89.0895,"lo2":-89.0444,"dx":0.0017,"dy":0.0017,"nx":28,"ny":28,"refTime":"2022-11-13T15:00:00:Z","depth":0,"parameterNumber":3,"parameterNumberName":"V-component_of_WINDS"},"data":[0,0,0,0,0,0,0,0,0,0,0,0,0,0,0,0,0,0,0,0,0,0,0,0,0,0,0,0,0,0,0,0,0,0,0,0,0,0,0,0,0,0,0,0,0,0,0,0,0,0,0,0,0,0,0,0,0,0,1.178,1.178,0,1.1755,1.1755,1.1755,1.1748,1.1748,1.1748,1.1748,1.172,1.1719,1.1718,0,0,0,0,0,0,0,0,0,0,0,0,0,1.1821,1.1821,1.178,1.178,1.178,1.1755,1.1755,1.1754,1.1748,1.1748,1.1748,1.1748,1.172,1.1719,1.1718,0,0,0,0,0,0,0,0,0,0,0,0,0,1.1801,1.182,1.178,1.1773,1.1773,1.1755,1.1755,1.1754,1.1748,1.1748,1.1748,1.1748,1.172,1.1719,1.1718,1.1705,0,0,1.1714,1.1713,0,0,0,0,0,0,0,0,1.1802,1.1799,1.1775,1.1774,1.1773,1.1755,1.1759,1.1738,1.1747,1.1757,1.1748,1.1748,1.1731,1.1729,1.1724,1.1704,1.1702,1.1714,1.1713,1.1712,1.1712,0,0,0,0,0,0,0,1.1803,1.18,1.177,1.1774,1.1773,1.1771,1.1768,1.1755,1.1743,1.1756,1.1756,1.1753,1.1731,1.1725,1.1723,1.1702,1.1714,1.1712,1.1712,1.1711,1.1671,1.1671,0,0,0,0,0,0,1.1806,1.1801,1.1771,1.177,1.1788,1.177,1.1767,1.176,1.1743,1.1741,1.1753,1.1753,1.1727,1.1724,1.1722,1.1706,1.1712,1.1711,1.171,1.1672,1.1671,1.1671,0,0,0,0,0,0,1.1807,1.1803,1.1772,1.1785,1.1781,1.1769,1.1762,1.176,1.1754,1.1741,1.1738,1.1749,1.1727,1.1724,1.171,1.1705,1.171,1.1709,1.1672,1.1671,1.1671,1.1675,0,0,0,0,0,0,1.1808,1.1804,1.1799,1.1785,1.1781,1.1761,1.1761,1.1759,1.1752,1.1752,1.1737,1.1734,1.1727,1.1712,1.1708,1.1703,1.1708,1.1672,1.1672,1.1671,1.1675,1.1675,1.1674,0,0,0,0,0,1.181,1.18,1.1799,1.1795,1.1774,1.1761,1.1758,1.175,1.1752,1.1747,1.1738,1.1735,1.1706,1.171,1.1706,1.1701,1.1672,1.1672,1.1671,1.1675,1.1675,1.1674,0,0,0,0,0,0,1.1813,1.1798,1.1796,1.1783,1.1773,1.1759,1.1753,1.175,1.1739,1.1739,1.173,1.1726,1.1713,1.1706,1.171,1.1688,1.1689,1.1688,1.1694,1.1693,1.1693,1.1695,1.1707,0,0,0,0,0,1.1812,1.1802,1.179,1.1779,1.1774,1.1765,1.1758,1.1754,1.1743,1.1738,1.1729,1.1718,1.1707,1.17,1.1688,1.1674,1.1671,1.1669,1.1668,1.1668,1.1667,1.166,1.1659,1.1669,1.1669,1.1669,0,0,1.181,1.1801,1.1795,1.1779,1.1771,1.1762,1.1761,1.175,1.1743,1.1736,1.1723,1.1716,1.1703,1.1689,1.1683,1.1683,1.1664,1.1667,1.1667,1.1666,1.1659,1.1658,1.1657,1.1669,1.1669,1.1669,0,0,1.1801,1.1793,1.1784,1.1776,1.1764,1.1758,1.1756,1.1743,1.1738,1.1725,1.172,1.1711,1.1692,1.1683,1.1677,1.1666,1.1663,1.1663,1.1661,1.1654,1.1653,1.1652,1.1649,1.1648,1.1662,1.1662,1.1662,0,1.1799,1.1785,1.1779,1.1769,1.1762,1.1757,1.1748,1.174,1.1725,1.1721,1.1721,1.1698,1.1689,1.1673,1.1671,1.1666,1.1663,1.1664,1.1654,1.1653,1.1652,1.1649,1.1648,1.1662,1.1662,1.1662,1.1662,0,1.1784,1.1774,1.1768,1.1755,1.1748,1.1738,1.173,1.1723,1.1719,1.1713,1.17,1.1689,1.1676,1.1672,1.1668,1.1657,1.1657,1.1656,1.1657,1.1652,1.1649,1.1647,1.1662,1.1662,1.1662,1.1662,0,0,1.1776,1.1761,1.1758,1.1753,1.1741,1.1733,1.1723,1.1711,1.1706,1.1696,1.1688,1.1672,1.1671,1.1664,1.1658,1.1652,1.1646,1.1652,1.1652,1.1652,1.1633,1.1634,1.1633,1.1644,1.1644,1.1643,1.1635,0,1.1766,1.1749,1.1743,1.1729,1.172,1.1716,1.1708,1.1699,1.1693,1.1684,1.1677,1.1667,1.1666,1.1662,1.1656,1.1648,1.1642,1.1649,1.1636,1.1635,1.1639,1.1631,1.1632,1.1624,1.1633,1.1633,1.1633,0,1.1751,1.1743,1.1728,1.1718,1.1714,1.1707,1.1696,1.1688,1.1678,1.1674,1.1667,1.1662,1.1652,1.1654,1.1639,1.1644,1.1638,1.1634,1.1633,1.1632,1.1634,1.163,1.1622,1.1621,1.1631,1.1631,1.1631,0,1.1747,1.1732,1.1722,1.1717,1.1705,1.17,1.1694,1.1685,1.1679,1.1669,1.1665,1.1655,1.1649,1.164,1.1633,1.1635,1.162,1.1621,1.1616,1.1616,1.1613,1.1613,1.1604,1.1609,1.1609,1.1609,1.1609,0,1.1737,1.1728,1.172,1.1713,1.1703,1.1697,1.1688,1.1682,1.1674,1.1666,1.1661,1.1654,1.1645,1.1637,1.1631,1.162,1.1617,1.1614,1.1612,1.1614,1.1615,1.161,1.1611,1.1609,1.1609,1.1609,1.1609,0,1.1731,1.1725,1.1713,1.1703,1.17,1.1694,1.1685,1.1678,1.1673,1.1663,1.166,1.1651,1.1641,1.1633,1.162,1.1616,1.1605,1.1603,1.1608,1.1608,1.1604,1.1604,1.1591,1.1589,1.1596,1.1596,1.1596,0,1.1724,1.1718,1.1708,1.1703,1.1698,1.1689,1.1683,1.1677,1.1671,1.1661,1.1655,1.1645,1.1637,1.1621,1.1612,1.1602,1.16,1.1597,1.1599,1.1601,1.1601,1.1601,1.1601,1.1596,1.1596,1.1596,1.1596,0,1.1714,1.1712,1.1704,1.1696,1.1689,1.1682,1.1674,1.167,1.1663,1.1656,1.1646,1.164,1.1627,1.1617,1.1606,1.16,1.1597,1.1596,1.1594,1.1596,1.16,1.1598,1.1608,1.1596,1.1596,1.1596,1.1596,1.1596,1.1708,1.1702,1.1695,1.1686,1.168,1.1674,1.1668,1.1662,1.1654,1.1644,1.164,1.163,1.1621,1.1607,1.1601,1.1593,1.1593,1.159,1.159,1.1589,1.159,1.1601,1.1591,1.1591,1.1591,1.1591,1.1591,0,1.1698,1.1693,1.1685,1.1676,1.167,1.1668,1.166,1.1655,1.1646,1.1639,1.1631,1.162,1.1611,1.1603,1.1593,1.1588,1.1586,1.1586,1.1586,1.1585,1.159,1.1593,1.1587,1.1587,1.1587,1.1587,1.1587,1.1587,1.1692,1.1682,1.1679,1.1667,1.1662,1.1653,1.1649,1.1643,1.1637,1.1626,1.1618,1.1613,1.1606,1.1595,1.1587,1.1585,1.1581,1.1581,1.1578,1.1584,1.1584,1.1584,1.1587,1.158,1.158,1.1573,1.1573,1.1573]}]]